Hays, KS

9:15 PM CST on February 05, 2016 (GMT -0600)
Hays Regional

Weather History for KHYS - January, 2014

Change the Weather History Date:

Sunday, January 5, 2014

  Actual Average Record
Temperature  
Mean Temperature 10 °F -  
Max Temperature 19 °F 41 °F 66 °F (2012)
Min Temperature 1 °F 16 °F 0 °F (2004)
Degree Days  
Heating Degree Days 55    
Moisture  
Dew Point 1 °F    
Average Humidity 61    
Maximum Humidity 73    
Minimum Humidity 53    
Precipitation  
Precipitation 0.00 in - - ()
Sea Level Pressure  
Sea Level Pressure 30.34 in    
Wind  
Wind Speed 18 mph (North)    
Max Wind Speed 25 mph    
Max Gust Speed 32 mph    
Visibility 10 miles    
Events      
Averages and records for this station are not official NWS values.
T = Trace of Precipitation, MM = Missing Value Source: NWS Daily Summary

Daily Weather History Graph

Daily Weather History Graph

Search for Another Location

Airport or City:

Trip Planner

Search our weather history database for the weather conditions in past years. The results will help you decide how hot, cold, wet, or windy it might be!

Date:

Astronomy

Jan. 05, 2014 Rise Set
Actual Time 7:55 AM CST 5:29 PM CST
Civil Twilight 7:26 AM CST 5:59 PM CST
Nautical Twilight 6:52 AM CST 6:32 PM CST
Astronomical Twilight 6:20 AM CST 7:04 PM CST
Moon 10:41 AM CST (1/5) 10:55 PM CST (1/5)
Length of Visible Light 10h 33m
Length of Day
9h 33m
Waxing Crescent, 25% of the Moon is Illuminated
Jan 5
Waxing Crescent
Jan 7
First Quarter
Jan 15
Full
Jan 23
Last Quarter
Jan 30
New

Hourly Weather History & Observations

Time (CST) Temp. Windchill Dew Point Humidity Pressure Visibility Wind Dir Wind Speed Gust Speed Precip Events Conditions
12:15 AM 19.4 °F 3.2 °F 6.8 °F 58% 30.12 in 10.0 mi North 20.7 mph 25.3 mph N/A   Overcast
12:35 AM 19.4 °F 4.5 °F 6.8 °F 58% 30.13 in 10.0 mi North 17.3 mph - N/A   Overcast
12:55 AM 19.4 °F 4.1 °F 6.8 °F 58% 30.13 in 10.0 mi North 18.4 mph 23.0 mph N/A   Overcast
1:15 AM 17.6 °F 2.2 °F 6.8 °F 63% 30.13 in 10.0 mi North 17.3 mph 24.2 mph N/A   Overcast
1:35 AM 17.6 °F 1.3 °F 6.8 °F 63% 30.13 in 10.0 mi North 19.6 mph 24.2 mph N/A   Overcast
1:55 AM 17.6 °F 0.5 °F 5.0 °F 58% 30.13 in 10.0 mi North 21.9 mph 27.6 mph N/A   Overcast
2:15 AM 17.6 °F -0.6 °F 5.0 °F 58% 30.14 in 10.0 mi North 25.3 mph 28.8 mph N/A   Overcast
2:35 AM 17.6 °F 0.1 °F 3.2 °F 53% 30.14 in 10.0 mi North 23.0 mph 32.2 mph N/A   Overcast
2:55 AM 15.8 °F -2.3 °F 3.2 °F 58% 30.15 in 10.0 mi North 23.0 mph 29.9 mph N/A   Overcast
3:15 AM 15.8 °F -1.5 °F 3.2 °F 58% 30.16 in 10.0 mi North 20.7 mph - N/A   Overcast
3:35 AM 15.8 °F -1.5 °F 3.2 °F 58% 30.16 in 10.0 mi North 20.7 mph 25.3 mph N/A   Overcast
3:55 AM 15.8 °F -0.6 °F 1.4 °F 53% 30.17 in 10.0 mi North 18.4 mph - N/A   Overcast
4:15 AM 14.0 °F -4.7 °F 1.4 °F 57% 30.17 in 10.0 mi North 23.0 mph - N/A   Overcast
4:35 AM 14.0 °F -5.5 °F -0.4 °F 53% 30.17 in 10.0 mi North 25.3 mph 28.8 mph N/A   Overcast
4:55 AM 12.2 °F -7.5 °F 1.4 °F 62% 30.17 in 10.0 mi North 24.2 mph 29.9 mph N/A   Mostly Cloudy
5:15 AM 12.2 °F -6.3 °F 1.4 °F 62% 30.17 in 10.0 mi North 20.7 mph 28.8 mph N/A   Scattered Clouds
5:35 AM 12.2 °F -4.8 °F 1.4 °F 62% 30.20 in 10.0 mi North 17.3 mph - N/A   Mostly Cloudy
5:55 AM 10.4 °F -7.2 °F -0.4 °F 62% 30.22 in 10.0 mi North 17.3 mph 23.0 mph N/A   Scattered Clouds
6:15 AM 10.4 °F -7.7 °F -2.2 °F 57% 30.24 in 10.0 mi North 18.4 mph 21.9 mph N/A   Clear
6:35 AM 10.4 °F -8.2 °F -2.2 °F 57% 30.25 in 10.0 mi North 19.6 mph - N/A   Clear
6:55 AM 8.6 °F -8.9 °F -2.2 °F 62% 30.25 in 10.0 mi North 16.1 mph - N/A   Clear
7:15 AM 8.6 °F -9.5 °F -2.2 °F 62% 30.26 in 10.0 mi North 17.3 mph - N/A   Clear
7:35 AM 8.6 °F -10.5 °F -2.2 °F 62% 30.26 in 10.0 mi North 19.6 mph - N/A   Clear
7:55 AM 8.6 °F -10.5 °F -2.2 °F 62% 30.27 in 10.0 mi North 19.6 mph - N/A   Clear
8:15 AM 8.6 °F -8.9 °F -0.4 °F 67% 30.29 in 10.0 mi North 16.1 mph - N/A   Clear
8:35 AM 8.6 °F -9.5 °F -0.4 °F 67% 30.29 in 10.0 mi North 17.3 mph - N/A   Clear
8:55 AM 8.6 °F -8.3 °F 1.4 °F 73% 30.30 in 10.0 mi North 15.0 mph - N/A   Clear
9:15 AM 10.4 °F -7.7 °F -0.4 °F 62% 30.31 in 10.0 mi North 18.4 mph - N/A   Clear
9:35 AM 10.4 °F -7.7 °F 1.4 °F 67% 30.32 in 10.0 mi North 18.4 mph - N/A   Clear
9:55 AM 10.4 °F -7.7 °F -0.4 °F 62% 30.33 in 10.0 mi North 18.4 mph - N/A   Clear
10:15 AM 10.4 °F -7.2 °F -0.4 °F 62% 30.35 in 10.0 mi North 17.3 mph 21.9 mph N/A   Clear
10:35 AM 10.4 °F -8.2 °F 1.4 °F 67% 30.36 in 10.0 mi North 19.6 mph 24.2 mph N/A   Mostly Cloudy
10:55 AM 12.2 °F -6.3 °F 1.4 °F 62% 30.36 in 10.0 mi North 20.7 mph 24.2 mph N/A   Mostly Cloudy
11:15 AM 12.2 °F -7.5 °F 1.4 °F 62% 30.37 in 10.0 mi North 24.2 mph - N/A   Scattered Clouds
11:35 AM 12.2 °F -6.3 °F -0.4 °F 57% 30.36 in 10.0 mi North 20.7 mph - N/A   Mostly Cloudy
11:55 AM 14.0 °F -4.3 °F 1.4 °F 57% 30.35 in 10.0 mi North 21.9 mph 28.8 mph N/A   Overcast
12:15 PM 14.0 °F -4.7 °F -0.4 °F 53% 30.36 in 10.0 mi North 23.0 mph 29.9 mph N/A   Overcast
12:35 PM 14.0 °F -4.3 °F 1.4 °F 57% 30.35 in 10.0 mi North 21.9 mph 29.9 mph N/A   Overcast
12:55 PM 14.0 °F -4.7 °F -0.4 °F 53% 30.35 in 10.0 mi NNE 23.0 mph - N/A   Overcast
1:15 PM 15.8 °F 0.3 °F 1.4 °F 53% 30.35 in 10.0 mi NNE 16.1 mph 24.2 mph N/A   Overcast
1:35 PM 15.8 °F -0.2 °F 1.4 °F 53% 30.35 in 10.0 mi North 17.3 mph 23.0 mph N/A   Overcast
1:55 PM 15.8 °F -0.2 °F 3.2 °F 58% 30.35 in 10.0 mi North 17.3 mph 21.9 mph N/A   Overcast
2:15 PM 15.8 °F 0.3 °F 1.4 °F 53% 30.36 in 10.0 mi NNE 16.1 mph 23.0 mph N/A   Overcast
2:35 PM 15.8 °F -1.1 °F 1.4 °F 53% 30.37 in 10.0 mi North 19.6 mph - N/A   Overcast
2:55 PM 15.8 °F -0.6 °F 1.4 °F 53% 30.38 in 10.0 mi North 18.4 mph 25.3 mph N/A   Overcast
3:15 PM 15.8 °F 0.3 °F 3.2 °F 58% 30.39 in 10.0 mi North 16.1 mph 20.7 mph N/A   Overcast
3:35 PM 15.8 °F 1.4 °F 3.2 °F 58% 30.39 in 10.0 mi NNW 13.8 mph - N/A   Overcast
3:55 PM 15.8 °F 0.9 °F 3.2 °F 58% 30.40 in 10.0 mi NNW 15.0 mph - N/A   Overcast
4:15 PM 15.8 °F -0.2 °F 1.4 °F 53% 30.41 in 10.0 mi North 17.3 mph - N/A   Mostly Cloudy
4:35 PM 15.8 °F 0.9 °F 1.4 °F 53% 30.41 in 10.0 mi North 15.0 mph - N/A   Mostly Cloudy
4:55 PM 15.8 °F 0.9 °F 1.4 °F 53% 30.42 in 10.0 mi North 15.0 mph - N/A   Mostly Cloudy
5:15 PM 15.8 °F 2.1 °F 1.4 °F 53% 30.43 in 10.0 mi North 12.7 mph - N/A   Mostly Cloudy
5:35 PM 15.8 °F 0.9 °F 3.2 °F 58% 30.43 in 10.0 mi North 15.0 mph - N/A   Overcast
5:55 PM 14.0 °F 2.0 °F 1.4 °F 57% 30.43 in 10.0 mi NE 9.2 mph - N/A   Mostly Cloudy
6:15 PM 12.2 °F -1.0 °F 1.4 °F 62% 30.44 in 10.0 mi NNE 10.4 mph - N/A   Partly Cloudy
6:35 PM 12.2 °F -0.2 °F 1.4 °F 62% 30.44 in 10.0 mi NNE 9.2 mph - N/A   Clear
6:55 PM 12.2 °F 1.7 °F 3.2 °F 67% 30.45 in 10.0 mi NNE 6.9 mph - N/A   Mostly Cloudy
7:15 PM 12.2 °F -0.2 °F 3.2 °F 67% 30.46 in 10.0 mi NNE 9.2 mph - N/A   Overcast
7:35 PM 12.2 °F 0.7 °F 3.2 °F 67% 30.47 in 10.0 mi NNE 8.1 mph - N/A   Overcast
7:55 PM 12.2 °F -1.8 °F 5.0 °F 73% 30.48 in 10.0 mi North 11.5 mph - N/A   Overcast
8:15 PM 12.2 °F -1.0 °F 3.2 °F 67% 30.49 in 10.0 mi North 10.4 mph - N/A   Overcast
8:35 PM 12.2 °F -1.8 °F 3.2 °F 67% 30.50 in 6.0 mi North 11.5 mph - N/A   Overcast
8:55 PM 10.4 °F -5.4 °F 1.4 °F 67% 30.50 in 10.0 mi North 13.8 mph - N/A   Overcast
9:15 PM 8.6 °F -7.7 °F 1.4 °F 73% 30.52 in 10.0 mi North 13.8 mph - N/A   Mostly Cloudy
9:35 PM 8.6 °F -4.7 °F 1.4 °F 73% 30.52 in 10.0 mi North 9.2 mph - N/A   Mostly Cloudy
9:55 PM 8.6 °F -3.7 °F 1.4 °F 73% 30.52 in 8.0 mi North 8.1 mph - N/A   Overcast
10:15 PM 8.6 °F -8.3 °F 1.4 °F 73% 30.53 in 7.0 mi North 15.0 mph 19.6 mph N/A   Overcast
10:35 PM 6.8 °F -10.7 °F -4.0 °F 61% 30.54 in 4.0 mi North 15.0 mph - N/A   Overcast
10:55 PM 3.2 °F -18.1 °F -4.0 °F 72% 30.54 in 8.0 mi North 20.7 mph 25.3 mph N/A   Overcast
11:15 PM 1.4 °F -17.6 °F -9.4 °F 61% 30.55 in 10.0 mi North 15.0 mph - N/A   Scattered Clouds
11:35 PM 1.4 °F -13.5 °F -9.4 °F 61% 30.55 in 10.0 mi NNW 9.2 mph - N/A   Clear
11:55 PM 1.4 °F -13.5 °F -9.4 °F 61% 30.55 in 10.0 mi NNW 9.2 mph - N/A   Clear